Weather History for Kalispell, MT

Change the Weather History Date:

Tuesday, July 16, 2013

  Actual Average Record
Temperature  
Mean Temperature 73 °F 65 °F  
Max Temperature 87 °F 82 °F 99 °F (1919)
Min Temperature 59 °F 48 °F 35 °F (1968)
Degree Days  
Heating Degree Days 0 2  
Month to date heating degree days 18 52  
Since 1 June heating degree days 204 268  
Since 1 July heating degree days 18 52  
Cooling Degree Days 8 2  
Month to date cooling degree days 54 24  
Year to date cooling degree days 73 40  
Since 1 June cooling degree days 73 37  
Growing Degree Days 23 (Base 50)    
Moisture  
Dew Point 44 °F    
Average Humidity 39    
Maximum Humidity 52    
Minimum Humidity 25    
Precipitation  
Precipitation 0.00 in 0.05 in 0.68 in (1942)
Month to date precipitation 0.30 0.93  
Year to date precipitation 9.31 10.10  
Snow  
Snow 0.00 in - - ()
Month to date snowfall 0.0  
Year to date snowfall 10.1  
Since 1 July snowfall 0.0  
Snow Depth 0.00 in    
Sea Level Pressure  
Sea Level Pressure 30.01 in    
Wind  
Wind Speed 13 mph (NNE)    
Max Wind Speed 26 mph    
Max Gust Speed 35 mph    
Visibility 10 miles    
Events      
T = Trace of Precipitation, MM = Missing Value Source: NWS Daily Summary

Daily Weather History Graph

Daily Weather History Graph

Search for Another Location

Airport:

Trip Planner

Search our weather history database for the weather conditions in past years. The results will help you decide how hot, cold, wet, or windy it might be!

Date:

Astronomy

Jul. 16, 2013 Rise Set
Actual Time 5:53 AM MDT 9:32 PM MDT
Civil Twilight 5:13 AM MDT 10:11 PM MDT
Nautical Twilight 4:20 AM MDT 11:04 PM MDT
Astronomical Twilight 3:05 AM MDT 12:18 AM MDT
Moon 3:07 PM MDT (7/16) 12:40 AM MDT (7/16)
Length of Visible Light 16h 57m
Length of Day
15h 38m
First Quarter, 57% of the Moon is Illuminated
Jul 16
First Quarter
Jul 22
Full
Jul 29
Last Quarter
Aug 6
New
Aug 14
First Quarter

Hourly Weather History & Observations

Time (MDT) Temp. Dew Point Humidity Pressure Visibility Wind Dir Wind Speed Gust Speed Precip Events Conditions
12:55 AM 64.0 °F 45.0 °F 50% 29.98 in 10.0 mi NNE 19.6 mph 34.5 mph N/A   Clear
1:55 AM 63.0 °F 44.1 °F 50% 30.02 in 10.0 mi NNE 15.0 mph 25.3 mph N/A   Clear
2:55 AM 62.1 °F 43.0 °F 50% 30.04 in 10.0 mi NNE 16.1 mph 20.7 mph N/A   Clear
3:55 AM 61.0 °F 42.1 °F 50% 30.05 in 10.0 mi NNE 12.7 mph - N/A   Clear
4:55 AM 60.1 °F 39.9 °F 47% 30.05 in 10.0 mi NNE 13.8 mph - N/A   Clear
5:55 AM 60.1 °F 39.0 °F 46% 30.06 in 10.0 mi NNE 15.0 mph - N/A   Clear
6:55 AM 60.1 °F 39.0 °F 46% 30.07 in 10.0 mi NNE 15.0 mph - N/A   Clear
7:55 AM 64.0 °F 39.9 °F 41% 30.07 in 10.0 mi NNE 11.5 mph - N/A   Clear
8:55 AM 66.9 °F 41.0 °F 39% 30.09 in 10.0 mi NNE 13.8 mph - N/A   Clear
9:55 AM 70.0 °F 42.1 °F 36% 30.09 in 10.0 mi NNE 12.7 mph - N/A   Clear
10:55 AM 73.0 °F 42.1 °F 33% 30.08 in 10.0 mi North 12.7 mph 20.7 mph N/A   Clear
11:55 AM 75.9 °F 44.1 °F 32% 30.07 in 10.0 mi Variable 5.8 mph - N/A   Clear
12:55 PM 78.1 °F 44.1 °F 30% 30.04 in 10.0 mi NE 9.2 mph - N/A   Clear
1:55 PM 81.0 °F 44.1 °F 27% 30.01 in 10.0 mi NE 6.9 mph - N/A   Clear
2:55 PM 82.0 °F 44.1 °F 26% 29.99 in 10.0 mi NE 10.4 mph - N/A   Clear
3:55 PM 84.9 °F 45.0 °F 25% 29.96 in 10.0 mi NNE 13.8 mph - N/A   Clear
4:55 PM 86.0 °F 46.0 °F 25% 29.95 in 10.0 mi North 13.8 mph 20.7 mph N/A   Clear
5:55 PM 86.0 °F 46.9 °F 26% 29.93 in 10.0 mi NE 15.0 mph 24.2 mph N/A   Clear
6:55 PM 84.0 °F 46.9 °F 27% 29.92 in 10.0 mi NE 18.4 mph 27.6 mph N/A   Clear
7:55 PM 81.0 °F 46.9 °F 30% 29.94 in 10.0 mi NNE 20.7 mph 25.3 mph N/A   Clear
8:55 PM 77.0 °F 46.0 °F 33% 29.94 in 10.0 mi NNE 17.3 mph 25.3 mph N/A   Clear
9:55 PM 73.9 °F 46.0 °F 37% 29.96 in 10.0 mi NNE 10.4 mph - N/A   Clear
10:55 PM 72.0 °F 46.0 °F 40% 29.96 in 10.0 mi NNE 13.8 mph - N/A   Clear
11:55 PM 72.0 °F 46.0 °F 40% 29.97 in 10.0 mi NNE 15.0 mph 18.4 mph N/A   Clear